This is the latest recevied weather packets stored in our database for station/object SP2FH-13. If no packets are shown the sender has not sent any weather packets the latest 10 day(s).
| Time | Temp. | Humidity | Pressure | Rain* | Wind** | Luminosity | Snow |
|---|---|---|---|---|---|---|---|
| 1778401934 | 15.56° C | 46% | 1006.4 hPa | - | - | 623 W/m² | - |
| 1778401632 | 15° C | 46% | 1006.5 hPa | - | - | 621 W/m² | - |
| 1778401331 | 15° C | 47% | 1006.5 hPa | - | - | 613 W/m² | - |
| 1778401030 | 15° C | 49% | 1006.5 hPa | - | - | 605 W/m² | - |
| 1778400729 | 14.44° C | 48% | 1006.5 hPa | - | - | 599 W/m² | - |
| 1778400427 | 15° C | 49% | 1006.4 hPa | - | - | 591 W/m² | - |
| 1778400126 | 15° C | 51% | 1006.4 hPa | - | - | 577 W/m² | - |
| 1778399826 | 14.44° C | 47% | 1006.5 hPa | - | - | 566 W/m² | - |
| 1778399524 | 15° C | 52% | 1006.4 hPa | - | - | 551 W/m² | - |
| 1778399223 | 14.44° C | 54% | 1006.4 hPa | - | - | 537 W/m² | - |
| 1778398922 | 15.56° C | 47% | 1006.5 hPa | - | - | 522 W/m² | - |
| 1778398621 | 15.56° C | 50% | 1006.5 hPa | - | - | 520 W/m² | - |
| 1778398319 | 16.67° C | 49% | 1006.6 hPa | - | - | 510 W/m² | - |
| 1778398018 | 16.11° C | 49% | 1006.6 hPa | - | - | 499 W/m² | - |
| 1778397717 | 15.56° C | 48% | 1006.7 hPa | - | - | 488 W/m² | - |
| 1778397416 | 15° C | 53% | 1006.6 hPa | - | - | 473 W/m² | - |
| 1778397115 | 16.11° C | 51% | 1006.7 hPa | - | - | 464 W/m² | - |
| 1778396814 | 15.56° C | 52% | 1006.7 hPa | - | - | 446 W/m² | - |
| 1778396513 | 14.44° C | 60% | 1006.7 hPa | - | - | 433 W/m² | - |
| 1778396213 | 13.89° C | 61% | 1006.8 hPa | - | - | 416 W/m² | - |
| 1778395911 | 13.33° C | 63% | 1006.7 hPa | - | - | 397 W/m² | - |
| 1778395610 | 12.78° C | 66% | 1006.7 hPa | - | - | 383 W/m² | - |
| 1778395309 | 12.78° C | 68% | 1006.8 hPa | - | - | 372 W/m² | - |
| 1778395009 | 12.78° C | 68% | 1006.8 hPa | - | - | 357 W/m² | - |
| 1778394708 | 13.33° C | 66% | 1006.8 hPa | - | - | 345 W/m² | - |
* Rain since midnight (hover to see other rain measurements)
** Current wind speed in m/s (hover to see current wind gust speed)